DW5963 Weather Reports


Display with metric or nautical units.
time (UTC)temp
F
wind
direction
speed
MPH
gust
MPH
rain 1hr
in
rain 24hr
in
rain mn
in
humidity
%
barometer
mb
20260905212010 84 360 6.0 0.0 0.00 0.00 0.00 60 1008.7
20260905211506 84 360 5.0 0.0 0.00 0.00 0.00 61 1008.6
20260905211007 84 360 5.0 0.0 0.00 0.00 0.00 60 1008.7
20260905210509 84 360 4.0 0.0 0.00 0.00 0.00 61 1008.6
20260905210004 84 360 6.0 0.0 0.00 0.00 0.00 61 1008.6
20260905205504 84 360 6.0 0.0 0.00 0.00 0.00 61 1008.7
20260905205004 84 360 5.0 0.0 0.00 0.00 0.00 62 1008.7
20260905204003 84 360 5.0 0.0 0.00 0.00 0.00 62 1008.7
20260905203503 83 360 5.0 0.0 0.00 0.00 0.00 62 1008.7
20260905203003 84 360 5.0 0.0 0.00 0.00 0.00 62 1008.7
20260905202502 83 360 5.0 0.0 0.00 0.00 0.00 63 1008.7
20260905202002 83 360 5.0 0.0 0.00 0.00 0.00 63 1008.7
20260905201505 83 360 4.0 0.0 0.00 0.00 0.00 63 1008.7
20260905201001 83 360 3.0 0.0 0.00 0.00 0.00 63 1008.7
20260905200600 82 360 4.0 0.0 0.00 0.00 0.00 65 1008.8
20260905195557 81 360 3.0 0.0 0.00 0.00 0.00 66 1008.8
20260905195057 81 360 3.0 0.0 0.00 0.00 0.00 66 1008.8
20260905194058 81 360 3.0 0.0 0.00 0.00 0.00 67 1008.9
20260905193556 80 360 4.0 0.0 0.00 0.00 0.00 67 1008.9
20260905193057 80 360 4.0 0.0 0.00 0.00 0.00 68 1008.9
20260905192556 80 43 5.0 0.0 0.00 0.00 0.00 68 1008.9
20260905192057 80 360 4.0 0.0 0.00 0.00 0.00 68 1008.9
20260905191556 80 108 5.0 0.0 0.00 0.00 0.00 68 1008.8
20260905191056 81 360 7.0 0.0 0.00 0.00 0.00 68 1008.8
20260905190554 80 360 7.0 0.0 0.00 0.00 0.00 70 1008.8
20260905190055 80 360 7.0 0.0 0.00 0.00 0.00 70 1008.8
20260905185557 79 360 8.0 0.0 0.00 0.00 0.00 71 1008.8
20260905185053 79 360 8.0 0.0 0.00 0.00 0.00 72 1008.8
20260905184056 78 84 8.0 0.0 0.00 0.00 0.00 73 1009.0
20260905183556 78 360 8.0 0.0 0.00 0.00 0.00 73 1009.0
20260905183057 78 360 8.0 0.0 0.00 0.00 0.00 74 1009.1
20260905182553 77 65 8.0 0.0 0.00 0.00 0.00 74 1009.0
20260905182053 77 82 8.0 0.0 0.00 0.00 0.00 75 1009.0
20260905181605 77 360 8.0 0.0 0.00 0.00 0.00 74 1009.0
20260905181053 77 360 8.0 0.0 0.00 0.00 0.00 74 1009.0
20260905180553 77 360 8.0 0.0 0.00 0.00 0.00 73 1008.9
20260905180052 77 91 6.0 0.0 0.00 0.00 0.00 73 1009.0
20260905175553 77 88 5.0 0.0 0.00 0.00 0.00 74 1009.0
20260905175055 77 360 4.0 0.0 0.00 0.00 0.00 73 1009.2
20260905174052 77 92 6.0 0.0 0.00 0.00 0.00 72 1009.3
20260905173552 78 79 6.0 0.0 0.00 0.00 0.00 72 1009.2
20260905173051 78 84 5.0 0.0 0.00 0.00 0.00 71 1009.2
20260905172552 78 80 6.0 0.0 0.00 0.00 0.00 71 1009.2
20260905172052 78 114 8.0 0.0 0.00 0.00 0.00 70 1009.2
20260905171552 79 112 8.0 0.0 0.00 0.00 0.00 69 1009.2
20260905171050 79 82 8.0 0.0 0.00 0.00 0.00 70 1008.9
20260905170550 79 92 8.0 0.0 0.00 0.00 0.00 70 1008.7
20260905170053 79 83 9.0 0.0 0.00 0.00 0.00 70 1008.7
20260905165549 79 111 10.0 0.0 0.00 0.00 0.00 70 1008.6
20260905165048 79 112 9.0 0.0 0.00 0.00 0.00 71 1008.6
20260905164050 78 73 8.0 0.0 0.00 0.00 0.00 72 1008.6
20260905163546 77 107 9.0 0.0 0.00 0.00 0.00 72 1008.5
20260905163048 77 360 9.0 0.0 0.00 0.00 0.00 72 1008.7
20260905162545 77 90 9.0 0.0 0.00 0.00 0.00 73 1008.7
20260905162043 76 98 10.0 0.0 0.00 0.00 0.00 73 1008.6
20260905161543 76 86 10.0 0.0 0.00 0.00 0.00 74 1008.4
20260905161043 76 90 9.0 0.0 0.00 0.00 0.00 74 1008.5
20260905160542 76 103 8.0 0.0 0.00 0.00 0.00 74 1008.8
20260905160109 76 90 8.0 0.0 0.00 0.00 0.00 75 1008.8
20260905155540 75 360 9.0 0.0 0.00 0.00 0.00 75 1008.8
20260905155043 75 88 10.0 0.0 0.00 0.00 0.00 75 1008.7
20260905154039 75 89 10.0 0.0 0.00 0.00 0.00 76 1008.6
20260905153537 74 76 11.0 0.0 0.00 0.00 0.00 76 1008.5
20260905153036 74 98 11.0 0.0 0.00 0.00 0.00 76 1008.5
20260905152536 74 94 10.0 0.0 0.00 0.00 0.00 77 1008.3
20260905152037 74 105 10.0 0.0 0.00 0.00 0.00 77 1008.4
20260905151537 74 80 11.0 0.0 0.00 0.00 0.00 76 1008.3
20260905151034 74 98 11.0 0.0 0.00 0.00 0.00 77 1008.4
20260905150534 73 105 11.0 0.0 0.00 0.00 0.00 78 1008.4
20260905150034 73 90 11.0 0.0 0.00 0.00 0.00 79 1008.5
20260905145531 72 107 10.0 0.0 0.00 0.00 0.00 79 1008.7
20260905145031 72 107 8.0 0.0 0.00 0.00 0.00 79 1008.7
20260905144032 72 360 7.0 0.0 0.00 0.00 0.00 80 1008.7
20260905143534 71 360 7.0 0.0 0.00 0.00 0.00 80 1008.8
20260905143030 71 360 7.0 0.0 0.00 0.00 0.00 81 1008.8
20260905142530 71 360 7.0 0.0 0.00 0.00 0.00 81 1008.9
20260905142029 70 360 7.0 0.0 0.00 0.00 0.00 82 1008.9
20260905141529 70 360 7.0 0.0 0.00 0.00 0.00 82 1009.0
20260905141027 70 360 7.0 0.0 0.00 0.00 0.00 83 1009.0
20260905140530 70 360 7.0 0.0 0.00 0.00 0.00 83 1008.9
20260905140026 69 360 7.0 0.0 0.00 0.00 0.00 84 1008.7
20260905135526 69 360 8.0 0.0 0.00 0.00 0.00 84 1008.6
20260905135025 69 360 7.0 0.0 0.00 0.00 0.00 85 1008.6
20260905134026 68 360 8.0 0.0 0.00 0.00 0.00 86 1008.5
20260905133524 68 360 8.0 0.0 0.00 0.00 0.00 87 1008.3
20260905133024 67 360 7.0 0.0 0.00 0.00 0.00 87 1008.3
20260905132527 67 360 6.0 0.0 0.00 0.00 0.00 88 1008.2
20260905132025 67 360 5.0 0.0 0.00 0.00 0.00 88 1008.1
20260905131523 66 360 4.0 0.0 0.00 0.00 0.00 89 1008.2
20260905131024 66 360 4.0 0.0 0.00 0.00 0.00 89 1008.3
20260905130522 66 360 5.0 0.0 0.00 0.00 0.00 90 1008.1
20260905130022 66 360 5.0 0.0 0.00 0.00 0.00 90 1008.0
20260905125521 66 360 5.0 0.0 0.00 0.00 0.00 90 1008.1
20260905125021 65 360 5.0 0.0 0.00 0.00 0.00 90 1008.0
20260905124019 65 360 6.0 0.0 0.00 0.00 0.00 90 1008.0
20260905123518 65 360 6.0 0.0 0.00 0.00 0.00 90 1007.8
20260905123018 65 360 5.0 0.0 0.00 0.00 0.00 90 1007.7
20260905122517 65 360 5.0 0.0 0.00 0.00 0.00 90 1007.6
20260905122015 65 360 5.0 0.0 0.00 0.00 0.00 90 1007.5
20260905121515 65 360 5.0 0.0 0.00 0.00 0.00 90 1007.4
20260905121016 65 360 5.0 0.0 0.00 0.00 0.00 89 1007.3
20260905120514 65 360 6.0 0.0 0.00 0.00 0.00 89 1007.2
20260905120012 65 360 6.0 0.0 0.00 0.00 0.00 89 1006.9
20260905115513 66 360 6.0 0.0 0.00 0.00 0.00 89 1006.9
20260905115011 66 360 6.0 0.0 0.00 0.00 0.00 89 1006.9
20260905114010 66 360 7.0 0.0 0.00 0.00 0.00 88 1006.6
20260905113510 66 360 7.0 0.0 0.00 0.00 0.00 88 1006.5
20260905113009 66 360 7.0 0.0 0.00 0.00 0.00 88 1006.5
20260905112510 66 360 7.0 0.0 0.00 0.00 0.00 87 1006.3
20260905112007 66 360 6.0 0.0 0.00 0.00 0.00 87 1006.3
20260905111507 66 360 6.0 0.0 0.00 0.00 0.00 87 1006.2
20260905111005 67 360 6.0 0.0 0.00 0.00 0.00 87 1006.1
20260905110503 67 360 6.0 0.0 0.00 0.00 0.00 86 1006.1
20260905110003 67 360 7.0 0.0 0.00 0.00 0.00 86 1005.8
20260905105503 67 360 7.0 0.0 0.00 0.00 0.00 86 1005.8
20260905105002 67 360 6.0 0.0 0.00 0.00 0.00 85 1005.7
20260905104102 67 360 6.0 0.0 0.00 0.00 0.00 85 1005.7
20260905103601 67 360 7.0 0.0 0.00 0.00 0.00 85 1005.7
20260905103059 68 360 7.0 0.0 0.00 0.00 0.00 84 1005.6
20260905102557 68 360 7.0 0.0 0.00 0.00 0.00 84 1005.6
20260905102058 68 360 7.0 0.0 0.00 0.00 0.00 84 1005.6
20260905101557 68 360 7.0 0.0 0.00 0.00 0.00 84 1005.4
20260905101056 68 360 6.0 0.0 0.00 0.00 0.00 83 1005.5
20260905100556 68 360 7.0 0.0 0.00 0.00 0.00 83 1005.3
20260905100055 68 360 7.0 0.0 0.00 0.00 0.00 83 1005.4
20260905095554 68 360 7.0 0.0 0.00 0.00 0.00 83 1005.4
20260905095054 69 360 7.0 0.0 0.00 0.00 0.00 83 1005.4
20260905094654 68 360 8.0 0.0 0.00 0.00 0.00 83 1005.2
20260905094056 68 360 7.0 0.0 0.00 0.00 0.00 83 1005.1
20260905093554 68 360 8.0 0.0 0.00 0.00 0.00 83 1005.2
20260905093054 69 360 8.0 0.0 0.00 0.00 0.00 82 1005.1
20260905092555 69 360 8.0 0.0 0.00 0.00 0.00 82 1005.2
20260905092052 69 360 8.0 0.0 0.00 0.00 0.00 82 1005.2
20260905091617 69 360 7.0 0.0 0.00 0.00 0.00 82 1005.2
20260905091050 69 360 7.0 0.0 0.00 0.00 0.00 81 1005.1
20260905090549 69 360 7.0 0.0 0.00 0.00 0.00 81 1005.1
20260905090106 69 360 7.0 0.0 0.00 0.00 0.00 81 1005.1
20260905085548 69 360 7.0 0.0 0.00 0.00 0.00 81 1005.1
20260905085049 69 360 7.0 0.0 0.00 0.00 0.00 81 1005.0
20260905084647 69 360 7.0 0.0 0.00 0.00 0.00 80 1004.9
20260905084047 69 360 7.0 0.0 0.00 0.00 0.00 80 1005.0
20260905083546 69 360 7.0 0.0 0.00 0.00 0.00 80 1005.1
20260905083046 69 360 7.0 0.0 0.00 0.00 0.00 79 1005.0
20260905082545 69 360 8.0 0.0 0.00 0.00 0.00 79 1005.0
20260905082044 70 360 8.0 0.0 0.00 0.00 0.00 78 1005.0
20260905081543 70 360 7.0 0.0 0.00 0.00 0.00 78 1005.0
20260905081043 69 360 6.0 0.0 0.00 0.00 0.00 78 1005.1
20260905080545 69 360 6.0 0.0 0.00 0.00 0.00 78 1005.2
20260905080049 69 360 5.0 0.0 0.00 0.00 0.00 77 1005.4
20260905075539 70 360 5.0 0.0 0.00 0.00 0.00 76 1005.3
20260905075038 70 360 5.0 0.0 0.00 0.00 0.00 76 1005.2
20260905074638 70 360 5.0 0.0 0.00 0.00 0.00 74 1005.1
20260905074037 70 360 6.0 0.0 0.00 0.00 0.00 74 1005.2
20260905073536 71 360 6.0 0.0 0.00 0.00 0.00 73 1005.2
20260905073035 71 360 6.0 0.0 0.00 0.00 0.00 73 1005.1
20260905072534 71 360 6.0 0.0 0.00 0.00 0.00 73 1005.1
20260905072035 71 360 6.0 0.0 0.00 0.00 0.00 72 1005.2
20260905071535 71 360 6.0 0.0 0.00 0.00 0.00 72 1005.1
20260905071034 72 360 6.0 0.0 0.00 0.00 0.00 71 1005.1
20260905070534 72 360 7.0 0.0 0.00 0.00 0.00 70 1005.1
20260905070034 72 360 7.0 0.0 0.00 0.00 0.00 70 1005.2
20260905065538 72 360 6.0 0.0 0.00 0.00 0.00 70 1005.2
20260905065034 72 360 5.0 0.0 0.00 0.00 0.00 70 1005.2
20260905064634 72 360 5.0 0.0 0.00 0.00 0.00 69 1005.3
20260905064037 72 360 5.0 0.0 0.00 0.00 0.00 69 1005.4
20260905063535 72 360 4.0 0.0 0.00 0.00 0.00 68 1005.3
20260905063035 72 360 5.0 0.0 0.00 0.00 0.00 67 1005.2
20260905062534 73 360 5.0 0.0 0.00 0.00 0.00 66 1005.2
20260905062034 73 360 5.0 0.0 0.00 0.00 0.00 66 1005.2
20260905061545 73 360 5.0 0.0 0.00 0.00 0.00 65 1005.1
20260905061034 73 360 5.0 0.0 0.00 0.00 0.00 64 1005.0
20260905060533 73 360 5.0 0.0 0.00 0.00 0.00 64 1005.1
20260905060034 74 360 5.0 0.0 0.00 0.00 0.00 64 1005.0
20260905055534 74 360 6.0 0.0 0.00 0.00 0.00 63 1005.0
20260905055034 74 360 6.0 0.0 0.00 0.00 0.00 63 1004.9
20260905054634 73 360 6.0 0.0 0.00 0.00 0.00 63 1004.9
20260905054033 73 360 6.0 0.0 0.00 0.00 0.00 63 1004.9
20260905053535 73 360 6.0 0.0 0.00 0.00 0.00 62 1004.9
20260905053033 74 360 6.0 0.0 0.00 0.00 0.00 61 1004.9
20260905052536 74 360 5.0 0.0 0.00 0.00 0.00 60 1004.9
20260905052034 74 360 5.0 0.0 0.00 0.00 0.00 60 1005.0
20260905051538 75 360 5.0 0.0 0.00 0.00 0.00 58 1005.0
20260905051032 75 360 5.0 0.0 0.00 0.00 0.00 58 1005.1
20260905050532 76 360 6.0 0.0 0.00 0.00 0.00 57 1005.0
20260905050035 76 360 6.0 0.0 0.00 0.00 0.00 56 1005.0
20260905045533 76 360 7.0 0.0 0.00 0.00 0.00 56 1005.0
20260905045032 77 360 9.0 0.0 0.00 0.00 0.00 55 1005.0
20260905044633 77 360 9.0 0.0 0.00 0.00 0.00 55 1005.0
20260905044032 77 360 10.0 0.0 0.00 0.00 0.00 55 1004.9
20260905043532 77 95 10.0 0.0 0.00 0.00 0.00 55 1004.9
20260905043032 77 98 10.0 0.0 0.00 0.00 0.00 54 1004.9
20260905042533 77 98 10.0 0.0 0.00 0.00 0.00 54 1004.9
20260905042032 78 103 10.0 0.0 0.00 0.00 0.00 53 1004.9
20260905041532 78 107 12.0 0.0 0.00 0.00 0.00 53 1004.8
20260905041033 78 98 11.0 0.0 0.00 0.00 0.00 52 1004.7
20260905040631 78 86 10.0 0.0 0.00 0.00 0.00 52 1004.8
20260905040032 79 360 10.0 0.0 0.00 0.00 0.00 52 1004.8
20260905035530 79 360 10.0 0.0 0.00 0.00 0.00 52 1004.9
20260905035030 79 360 9.0 0.0 0.00 0.00 0.00 51 1004.9
20260905034631 79 360 9.0 0.0 0.00 0.00 0.00 51 1005.0
20260905034034 79 360 9.0 0.0 0.00 0.00 0.00 52 1005.0
20260905033530 79 360 9.0 0.0 0.00 0.00 0.00 52 1005.1
20260905033033 79 360 9.0 0.0 0.00 0.00 0.00 52 1005.0
20260905032531 79 360 9.0 0.0 0.00 0.00 0.00 52 1005.1
20260905032030 79 360 9.0 0.0 0.00 0.00 0.00 53 1005.1
20260905031531 80 360 9.0 0.0 0.00 0.00 0.00 53 1005.1
20260905031031 80 360 8.0 0.0 0.00 0.00 0.00 53 1005.2
20260905030530 80 360 7.0 0.0 0.00 0.00 0.00 53 1005.2
20260905030037 80 360 7.0 0.0 0.00 0.00 0.00 53 1005.3
20260905025530 81 360 8.0 0.0 0.00 0.00 0.00 52 1005.1
20260905025030 82 360 8.0 0.0 0.00 0.00 0.00 51 1005.0
20260905024630 82 360 7.0 0.0 0.00 0.00 0.00 52 1005.1
20260905024031 82 360 7.0 0.0 0.00 0.00 0.00 51 1005.0
20260905023532 83 360 8.0 0.0 0.00 0.00 0.00 50 1005.1
20260905023033 83 360 9.0 0.0 0.00 0.00 0.00 50 1005.0
20260905022531 83 360 8.0 0.0 0.00 0.00 0.00 51 1005.0
20260905022030 83 360 7.0 0.0 0.00 0.00 0.00 52 1005.0
20260905021530 83 360 8.0 0.0 0.00 0.00 0.00 52 1004.9
20260905021030 83 360 8.0 0.0 0.00 0.00 0.00 52 1004.8
20260905020529 83 360 8.0 0.0 0.00 0.00 0.00 52 1004.8
20260905020036 82 360 7.0 0.0 0.00 0.00 0.00 54 1004.8
20260905015531 82 360 7.0 0.0 0.00 0.00 0.00 54 1004.5
20260905015030 82 360 5.0 0.0 0.00 0.00 0.00 54 1004.5
20260905014629 82 360 5.0 0.0 0.00 0.00 0.00 52 1004.5
20260905014030 82 360 5.0 0.0 0.00 0.00 0.00 52 1004.5
20260905013529 83 360 6.0 0.0 0.00 0.00 0.00 51 1004.4
20260905013031 83 360 5.0 0.0 0.00 0.00 0.00 51 1004.4
20260905012529 83 360 5.0 0.0 0.00 0.00 0.00 50 1004.3
20260905012029 84 360 5.0 0.0 0.00 0.00 0.00 49 1004.4
20260905011528 85 360 5.0 0.0 0.00 0.00 0.00 48 1004.3
20260905011028 85 360 5.0 0.0 0.00 0.00 0.00 47 1004.3
20260905010528 86 360 5.0 0.0 0.00 0.00 0.00 46 1004.3
20260905010027 87 360 5.0 0.0 0.00 0.00 0.00 45 1004.3
20260905005527 87 360 5.0 0.0 0.00 0.00 0.00 44 1004.2
20260905005028 88 86 5.0 0.0 0.00 0.00 0.00 43 1004.2
20260905004626 89 90 5.0 0.0 0.00 0.00 0.00 41 1004.2
20260905004025 89 89 5.0 0.0 0.00 0.00 0.00 41 1004.2
20260905003527 90 86 5.0 0.0 0.00 0.00 0.00 40 1004.0
20260905003031 90 360 6.0 0.0 0.00 0.00 0.00 38 1004.0
20260905002524 91 81 7.0 0.0 0.00 0.00 0.00 37 1004.1
20260905002025 91 81 6.0 0.0 0.00 0.00 0.00 36 1004.0
20260905001544 91 100 6.0 0.0 0.00 0.00 0.00 36 1004.2
20260905001028 91 94 6.0 0.0 0.00 0.00 0.00 36 1004.1
20260905000526 92 86 6.0 0.0 0.00 0.00 0.00 36 1004.2
20260905000024 92 111 6.0 0.0 0.00 0.00 0.00 34 1004.2
20260904235524 93 121 7.0 0.0 0.00 0.00 0.00 34 1004.2
20260904235026 93 93 7.0 0.0 0.00 0.00 0.00 33 1004.3
20260904234624 93 119 6.0 0.0 0.00 0.00 0.00 34 1004.4
20260904234023 93 110 7.0 0.0 0.00 0.00 0.00 33 1004.4
20260904233523 93 98 7.0 0.0 0.00 0.00 0.00 33 1004.3
20260904233038 93 109 8.0 0.0 0.00 0.00 0.00 34 1004.3
20260904232524 93 360 8.0 0.0 0.00 0.00 0.00 33 1004.3
20260904232022 93 134 8.0 0.0 0.00 0.00 0.00 33 1004.3
20260904231530 93 111 8.0 0.0 0.00 0.00 0.00 32 1004.4
20260904231021 93 140 10.0 0.0 0.00 0.00 0.00 33 1004.4
20260904230521 93 360 9.0 0.0 0.00 0.00 0.00 33 1004.5
20260904230021 94 141 9.0 0.0 0.00 0.00 0.00 33 1004.5
20260904225523 94 360 10.0 0.0 0.00 0.00 0.00 33 1004.5
20260904225020 94 360 11.0 0.0 0.00 0.00 0.00 34 1004.5
20260904224620 93 124 11.0 0.0 0.00 0.00 0.00 35 1004.4
20260904224020 93 127 10.0 0.0 0.00 0.00 0.00 35 1004.5
20260904223521 93 360 10.0 0.0 0.00 0.00 0.00 35 1004.5
20260904223020 93 360 10.0 0.0 0.00 0.00 0.00 35 1004.5
20260904222520 93 360 11.0 0.0 0.00 0.00 0.00 35 1004.5
20260904222018 93 360 11.0 0.0 0.00 0.00 0.00 34 1004.6
20260904221518 93 360 11.0 0.0 0.00 0.00 0.00 35 1004.6
20260904221017 93 360 11.0 0.0 0.00 0.00 0.00 35 1004.7
20260904220517 93 360 11.0 0.0 0.00 0.00 0.00 35 1004.7
20260904220017 93 360 12.0 0.0 0.00 0.00 0.00 35 1004.8
20260904215517 93 360 12.0 0.0 0.00 0.00 0.00 35 1004.9
20260904215016 93 360 12.0 0.0 0.00 0.00 0.00 35 1004.8
20260904214615 93 360 12.0 0.0 0.00 0.00 0.00 36 1004.9
20260904214015 93 360 11.0 0.0 0.00 0.00 0.00 36 1004.9
20260904213516 92 360 11.0 0.0 0.00 0.00 0.00 36 1004.9
20260904213022 92 360 12.0 0.0 0.00 0.00 0.00 36 1004.9
20260904212513 92 360 13.0 0.0 0.00 0.00 0.00 36 1005.0